WetterOnline ( https://www.wetteronline.de )

Wetter aktuell Naudin

Aktuelles Wetter: Schwerin (68m)

6-stündlich | Neueste Meldungen
Ortszeit Temperatur Wetter
So, 29.11. 1:00 3.1° C Regen
Sa, 28.11. 19:00 3.8° C bedeckt
Sa, 28.11. 13:00 3.0° C bedeckt
Sa, 28.11. 7:00 -2.5° C Nebel
Sa, 28.11. 1:00 -0.3° C Nebel
Fr, 27.11. 19:00 2.2° C Nebel
Fr, 27.11. 13:00 5.6° C wolkig
Fr, 27.11. 7:00 -0.4° C Nebel
Ortszeit Temperatur Wetter
So, 29.11. 3:00 2.9° C Sprühregen
So, 29.11. 2:50 2.9° C Sprühregen
So, 29.11. 2:40 2.8° C bedeckt
So, 29.11. 2:30 3.0° C leichter Regen
So, 29.11. 2:20 3.0° C leichter Regen
So, 29.11. 2:10 3.0° C bewölkt
So, 29.11. 2:00 2.9° C bewölkt
So, 29.11. 1:30 2.8° C leichter Regen
So, 29.11. 1:00 3.1° C Regen
So, 29.11. 0:30 3.2° C Sprühregen
So, 29.11. 0:00 3.2° C bedeckt
Ortszeit Relative Feuchte Sichtweite
So, 29.11. 1:00 88% 55 km
Sa, 28.11. 19:00 77% 60 km
Sa, 28.11. 13:00 89% 45 km
Sa, 28.11. 7:00 98% 0.5 km
Sa, 28.11. 1:00 100% 0.3 km
Fr, 27.11. 19:00 100% 100 m
Fr, 27.11. 13:00 92% 20 km
Fr, 27.11. 7:00 99% 100 m
Ortszeit Relative Feuchte Sichtweite
So, 29.11. 3:00 89% 30 km
So, 29.11. 2:50 89% -
So, 29.11. 2:40 90% -
So, 29.11. 2:30 89% 45 km
So, 29.11. 2:20 89% -
So, 29.11. 2:10 89% -
So, 29.11. 2:00 87% 45 km
So, 29.11. 1:30 88% 50 km
So, 29.11. 1:00 88% 55 km
So, 29.11. 0:30 87% 30 km
So, 29.11. 0:00 86% 50 km
Ortszeit Niederschlagsmenge Niederschlagsart
So, 29.11. 1:00 0.1 l/m2 in 6 Std. Regen
Sa, 28.11. 19:00 0.0 l/m2 in 12 Std. -
Sa, 28.11. 13:00 0.0 l/m2 in 6 Std. -
Sa, 28.11. 7:00 0.0 l/m2 in 12 Std. -
Sa, 28.11. 1:00 0.0 l/m2 in 6 Std. -
Fr, 27.11. 19:00 0.0 l/m2 in 12 Std. -
Fr, 27.11. 13:00 0.0 l/m2 in 6 Std. -
Fr, 27.11. 7:00 0.0 l/m2 in 12 Std. -
Ortszeit Niederschlagsmenge Niederschlagsart
So, 29.11. 3:00 0.1 l/m2 in 1 Std. Regen
So, 29.11. 2:50 keine Meldung -
So, 29.11. 2:40 keine Meldung -
So, 29.11. 2:30 0.1 l/m2 in 1 Std. -
So, 29.11. 2:20 keine Meldung -
So, 29.11. 2:10 keine Meldung -
So, 29.11. 2:00 0.1 l/m2 in 1 Std. Regen
So, 29.11. 1:30 0.1 l/m2 in 1 Std. -
So, 29.11. 1:00 0.1 l/m2 in 1 Std. Regen
So, 29.11. 0:30 0.1 l/m2 in 1 Std. -
So, 29.11. 0:00 0.0 l/m2 in 1 Std. -
Ortszeit Stärke Spitze Richtung
km/h Bft. km/h Grad Sektor
So, 29.11. 1:00 6 1 19 360° N
Sa, 28.11. 19:00 6 1 20 90° O
Sa, 28.11. 13:00 7 2 22 120° SO
Sa, 28.11. 7:00 6 1 11 210° SW
Sa, 28.11. 1:00 0 0 11 - -
Fr, 27.11. 19:00 4 1 14 110° O
Fr, 27.11. 13:00 4 1 7 130° SO
Fr, 27.11. 7:00 4 1 11 230° SW
Ortszeit Stärke Spitze Richtung
km/h Bft. km/h Grad Sektor
So, 29.11. 3:00 7 2 11 350° N
So, 29.11. 2:50 7 2 - 350° N
So, 29.11. 2:40 9 2 - 350° N
So, 29.11. 2:30 7 2 11 10° N
So, 29.11. 2:20 7 2 - 10° N
So, 29.11. 2:10 7 2 - 360° N
So, 29.11. 2:00 9 2 15 10° N
So, 29.11. 1:30 9 2 11 360° N
So, 29.11. 1:00 6 1 13 360° N
So, 29.11. 0:30 4 1 11 10° N
So, 29.11. 0:00 0 0 7 - -
Ortszeit Untergrenze Bedeckung Gattung
total tief tief mittel hoch
So, 29.11. 1:00 690 m 8/8 8/8 - - -
Sa, 28.11. 19:00 690 m 8/8 8/8 - - -
Sa, 28.11. 13:00 510 m 8/8 8/8 - - -
Sa, 28.11. 7:00 <30 m 8/8 0/8 - - -
Sa, 28.11. 1:00 <30 m 8/8 0/8 - - -
Fr, 27.11. 19:00 <30 m 8/8 0/8 - - -
Fr, 27.11. 13:00 30 m 7/8 7/8 - - -
Fr, 27.11. 7:00 <30 m 8/8 0/8 - - -
Ortszeit Bedeckungsgrad in Achtel und Wolkenuntergrenze
So, 29.11. 3:00 4(750m) 8(930m)
So, 29.11. 2:50 4(750m) 8(930m)
So, 29.11. 2:40 4(750m) 8(960m)
So, 29.11. 2:30 1(660m) 3(840m) 7(1050m)
So, 29.11. 2:20 1(660m) 3(840m) 7(1050m)
So, 29.11. 2:10 2(630m) 7(1020m)
So, 29.11. 2:00 2(660m) 7(1050m)
So, 29.11. 1:30 5(870m) 8(1080m)
So, 29.11. 1:00 1(690m) 5(900m) 8(1050m)
So, 29.11. 0:30 6(750m) 8(990m)
So, 29.11. 0:00 7(780m) 8(960m)
Ortszeit Luftdruck NN (hPa) Tendenz (hPa in 3 Std.)
So, 29.11. 1:00 1028 + 0,2
Sa, 28.11. 19:00 1028 + 0,9
Sa, 28.11. 13:00 1026 + 0,5
Sa, 28.11. 7:00 1025 + 0,5
Sa, 28.11. 1:00 1024 + 0,4
Fr, 27.11. 19:00 1023 + 0,6
Fr, 27.11. 13:00 1023 0,0
Fr, 27.11. 7:00 1022 + 0,4
Ortszeit Luftdruck NN (hPa) Tendenz (hPa in 3 Std.)
So, 29.11. 3:00 1028 - 0,4
So, 29.11. 2:50 1028 keine Meldung
So, 29.11. 2:40 1028 keine Meldung
So, 29.11. 2:30 1028 - 0,3
So, 29.11. 2:20 1028 keine Meldung
So, 29.11. 2:10 1028 keine Meldung
So, 29.11. 2:00 1028 - 0,4
So, 29.11. 1:30 1028 - 0,2
So, 29.11. 1:00 1028 + 0,2
So, 29.11. 0:30 1028 + 0,3
So, 29.11. 0:00 1028 + 0,3
Ortszeit Schneehöhe (cm)
So, 29.11. 1:00 0
Sa, 28.11. 19:00 0
Sa, 28.11. 13:00 0
Sa, 28.11. 7:00 0
Sa, 28.11. 1:00 0
Fr, 27.11. 19:00 0
Fr, 27.11. 13:00 0
Fr, 27.11. 7:00 0
Ortszeit Schneehöhe (cm)
So, 29.11. 3:00 0
So, 29.11. 2:50 0
So, 29.11. 2:40 0
So, 29.11. 2:30 0
So, 29.11. 2:20 0
So, 29.11. 2:10 0
So, 29.11. 2:00 0
So, 29.11. 1:30 0
So, 29.11. 1:00 0
So, 29.11. 0:30 0
So, 29.11. 0:00 0
Link zu dieser Seite / Seite empfehlen

Das Wetter in ...